N9WFD Weather Reports


Display with metric or nautical units.
time (UTC)temp
F
wind
direction
speed
MPH
gust
MPH
rain 1hr
in
rain 24hr
in
rain mn
in
humidity
%
barometer
mb
20260504050012 59 343 4.0 8.0 0.00 0.00 0.00 62 1004.4
20260504044508 59 331 5.0 9.0 0.00 0.00 0.00 61 1004.3
20260504043010 60 327 4.0 9.0 0.00 0.00 0.00 60 1004.3
20260504041505 60 350 3.0 8.0 0.00 0.00 0.00 60 1004.3
20260504040007 60 314 3.0 6.0 0.00 0.00 0.00 59 1004.4
20260504034507 61 294 3.0 8.0 0.00 0.00 0.00 59 1004.4
20260504033004 61 303 4.0 8.0 0.00 0.00 0.00 58 1004.5
20260504031533 61 330 4.0 8.0 0.00 0.00 0.00 58 1004.6
20260504030033 61 324 3.0 5.0 0.00 0.00 0.00 58 1004.7
20260504024507 62 319 2.0 4.0 0.00 0.00 0.00 56 1004.8
20260504023002 62 333 3.0 6.0 0.00 0.00 0.00 55 1004.8
20260504021608 62 323 2.0 6.0 0.00 0.00 0.00 54 1004.6
20260504020059 63 323 3.0 6.0 0.00 0.00 0.00 53 1004.6
20260504014559 63 335 1.0 3.0 0.00 0.00 0.00 52 1004.5
20260504013058 64 336 2.0 5.0 0.00 0.00 0.00 51 1004.4
20260504011528 65 335 2.0 4.0 0.00 0.00 0.00 50 1004.1
20260504010027 65 341 4.0 6.0 0.00 0.00 0.00 49 1004.0
20260504004524 66 347 4.0 9.0 0.00 0.00 0.00 47 1004.0
20260504003035 67 335 5.0 9.0 0.00 0.00 0.00 46 1004.1
20260504001521 67 345 4.0 11.0 0.00 0.00 0.00 45 1004.1
20260504000020 68 12 6.0 14.0 0.00 0.00 0.00 44 1004.2
20260503234519 68 44 7.0 12.0 0.00 0.00 0.00 43 1004.1
20260503233017 68 21 10.0 17.0 0.00 0.00 0.00 43 1004.2
20260503231515 68 29 9.0 18.0 0.00 0.00 0.00 43 1004.5
20260503230013 68 350 7.0 19.0 0.00 0.00 0.00 43 1004.4
20260503224524 69 21 8.0 19.0 0.00 0.00 0.00 43 1004.5
20260503223011 68 323 9.0 21.0 0.00 0.00 0.00 43 1004.4
20260503221507 68 347 10.0 18.0 0.00 0.00 0.00 43 1004.5
20260503220009 67 315 13.0 24.0 0.00 0.00 0.00 44 1004.7
20260503214501 66 308 12.0 20.0 0.00 0.00 0.00 44 1004.9
20260503213059 66 347 8.0 19.0 0.00 0.00 0.00 45 1005.1
20260503211558 66 308 8.0 27.0 0.00 0.00 0.00 44 1005.3
20260503210053 66 312 12.0 25.0 0.00 0.00 0.00 44 1005.8
20260503204552 65 338 16.0 26.0 0.00 0.00 0.00 43 1005.9
20260503203049 65 338 19.0 37.0 0.00 0.00 0.00 43 1006.2
20260503201546 65 338 16.0 29.0 0.00 0.00 0.00 45 1006.4
20260503200039 62 331 9.0 21.0 0.00 0.00 0.00 52 1007.0
20260503194537 62 326 11.0 23.0 0.00 0.00 0.00 53 1007.4
20260503193033 61 329 12.0 24.0 0.00 0.00 0.00 51 1007.7
20260503191531 60 293 12.0 23.0 0.00 0.00 0.00 54 1007.7
20260503190028 60 319 15.0 29.0 0.00 0.00 0.00 50 1007.8
20260503184626 59 325 12.0 28.0 0.00 0.00 0.00 52 1007.9
20260503183025 58 314 17.0 26.0 0.00 0.00 0.00 50 1007.9
20260503181521 59 308 13.0 26.0 0.00 0.00 0.00 52 1008.2
20260503180052 58 314 15.0 24.0 0.00 0.00 0.00 53 1008.5
20260503174546 57 311 9.0 25.0 0.00 0.00 0.00 57 1009.0
20260503173040 57 296 12.0 29.0 0.00 0.00 0.00 58 1009.4
20260503171559 55 283 13.0 23.0 0.00 0.00 0.00 63 1010.1
20260503081517 48 343 5.0 9.0 0.00 0.00 0.00 51 1013.7
20260503071513 48 331 6.0 10.0 0.00 0.00 0.00 52 1014.0